Location: Mahannah Oil Field
(37.4664°N, 96.6003°W)
Time: 03:36:01
(UTC+00:00)

A-11 Canister half - Pass Details

Date: 26 January 2021
Orbit: 1525 x 1684 km, 47.3° (Epoch: 02 March)

Event Time Altitude Azimuth Distance (km) Brightness Sun altitude
Rises 19:32:13 0° 224° (SW) 4,663 12.4 32.7°
Reaches altitude 10° 19:35:15 10° 222° (SW) 3,681 12.1 32.5°
Maximum altitude 19:44:25 70° 141° (SE) 1,616 9.9 32.0°
Drops below altitude 10° 19:53:46 10° 60° (ENE) 3,751 10.7 31.3°
Sets 19:56:53 0° 58° (ENE) 4,756 11.2 31.1°
